When you browse on this site, cookies collect data to enhance your experience and personalize the content and advertising you see.
Visit our Privacy Policy to learn more. By continuing to use the site, you agree to this use of cookies and data.
  • In Portugal
  • List of Countries
  • For 7 days
  • Water Temperature
  • Satellite Maps
  • Weather Map
  • Weather Widgets
  • user-avatar
    Login

    Hourly Weather Aleksandrowice

    Today, 22 February, Friday

    Time Temperature Precipitation Wind Pressure Humidity
    00:00 +6°C° 0.6 mm 5 mps 757 mmHg 92%
    01:00 +6°C° 0.6 mm 5 mps 757 mmHg 93%
    02:00 +6°C° 0.3 mm 5 mps 757 mmHg 92%
    03:00 +6°C° 0.3 mm 5 mps 758 mmHg 91%
    04:00 +4°C° 0.3 mm 6 mps 758 mmHg 90%
    05:00 +3°C° 0.1 mm 6 mps 759 mmHg 86%
    06:00 +1°C° 0.1 mm 6 mps 761 mmHg 82%
    07:00 -2°C° 0.1 mm 7 mps 762 mmHg 78%
    08:00 -2°C° 0 mm 6 mps 763 mmHg 71%
    09:00 -2°C° 0 mm 6 mps 765 mmHg 63%
    10:00 -2°C° 0 mm 6 mps 766 mmHg 55%
    11:00 -2°C° 0 mm 6 mps 767 mmHg 51%
    12:00 0°C° 0 mm 5 mps 768 mmHg 48%
    13:00 0°C° 0 mm 5 mps 768 mmHg 44%
    14:00 0°C° 0 mm 5 mps 769 mmHg 43%
    15:00 0°C° 0 mm 5 mps 769 mmHg 42%
    16:00 -1°C° 0 mm 4 mps 770 mmHg 41%
    17:00 -2°C° 0 mm 4 mps 771 mmHg 44%
    18:00 -1°C° 0 mm 3 mps 771 mmHg 48%
    19:00 -2°C° 0 mm 3 mps 772 mmHg 52%
    20:00 -2°C° 0 mm 3 mps 772 mmHg 52%
    21:00 -2°C° 0 mm 2 mps 773 mmHg 51%
    22:00 -3°C° 0 mm 2 mps 774 mmHg 51%
    23:00 -3°C° 0 mm 2 mps 774 mmHg 50%

    Tomorrow, 23 February, Saturday

    Time Temperature Precipitation Wind Pressure Humidity
    00:00 -3°C° 0 mm 2 mps 774 mmHg 49%
    01:00 -3°C° 0 mm 2 mps 774 mmHg 48%
    02:00 -3°C° 0 mm 2 mps 774 mmHg 47%
    03:00 -1°C° 0 mm 1 mps 773 mmHg 46%
    04:00 -1°C° 0 mm 1 mps 773 mmHg 46%
    05:00 -1°C° 0 mm 1 mps 773 mmHg 45%
    06:00 -1°C° 0 mm 1 mps 774 mmHg 45%
    07:00 -1°C° 0 mm 1 mps 774 mmHg 45%
    08:00 -1°C° 0 mm 1 mps 774 mmHg 40%
    09:00 0°C° 0 mm 1 mps 774 mmHg 36%
    10:00 +1°C° 0 mm 1 mps 774 mmHg 31%
    11:00 +2°C° 0 mm 1 mps 774 mmHg 28%
    12:00 +1°C° 0 mm 2 mps 773 mmHg 26%
    13:00 +2°C° 0 mm 2 mps 773 mmHg 24%
    14:00 +3°C° 0 mm 1 mps 773 mmHg 25%
    15:00 +3°C° 0 mm 1 mps 772 mmHg 27%
    16:00 +3°C° 0 mm 1 mps 772 mmHg 28%
    17:00 +2°C° 0 mm 1 mps 772 mmHg 31%
    18:00 +1°C° 0 mm 1 mps 772 mmHg 33%
    19:00 0°C° 0 mm 1 mps 772 mmHg 36%
    20:00 -2°C° 0 mm 2 mps 772 mmHg 37%
    21:00 -2°C° 0 mm 2 mps 772 mmHg 38%
    22:00 -2°C° 0 mm 2 mps 771 mmHg 38%
    23:00 -2°C° 0 mm 2 mps 771 mmHg 38%

    Day after tomorrow, 24 February, Sunday

    Time Temperature Precipitation Wind Pressure Humidity
    00:00 -2°C° 0 mm 2 mps 771 mmHg 38%
    01:00 -1°C° 0 mm 2 mps 771 mmHg 37%
    02:00 +1°C° 0 mm 1 mps 771 mmHg 37%
    03:00 0°C° 0 mm 1 mps 770 mmHg 36%
    04:00 0°C° 0 mm 1 mps 770 mmHg 35%
    05:00 0°C° 0 mm 1 mps 770 mmHg 35%
    06:00 0°C° 0 mm 1 mps 770 mmHg 34%
    07:00 +1°C° 0 mm 1 mps 770 mmHg 34%
    08:00 +2°C° 0 mm 1 mps 770 mmHg 32%
    09:00 +2°C° 0 mm 2 mps 770 mmHg 31%
    10:00 +4°C° 0 mm 2 mps 770 mmHg 29%
    11:00 +5°C° 0 mm 2 mps 770 mmHg 29%
    12:00 +5°C° 0 mm 3 mps 770 mmHg 29%
    13:00 +7°C° 0 mm 3 mps 769 mmHg 29%
    14:00 +7°C° 0 mm 3 mps 769 mmHg 34%
    15:00 +7°C° 0 mm 2 mps 769 mmHg 38%
    16:00 +6°C° 0 mm 2 mps 769 mmHg 43%
    17:00 +5°C° 0 mm 2 mps 769 mmHg 46%
    18:00 +4°C° 0 mm 2 mps 769 mmHg 48%
    19:00 +3°C° 0 mm 2 mps 770 mmHg 51%
    20:00 +3°C° 0 mm 2 mps 770 mmHg 53%
    21:00 +2°C° 0 mm 2 mps 770 mmHg 55%
    22:00 +2°C° 0 mm 2 mps 770 mmHg 58%
    23:00 +2°C° 0 mm 2 mps 770 mmHg 59%

    25 February, Monday

    Time Temperature Precipitation Wind Pressure Humidity
    00:00 +2°C° 0 mm 2 mps 770 mmHg 61%
    01:00 +1°C° 0 mm 2 mps 770 mmHg 62%
    02:00 +1°C° 0 mm 2 mps 770 mmHg 64%
    03:00 +1°C° 0 mm 2 mps 770 mmHg 65%
    04:00 +1°C° 0 mm 2 mps 770 mmHg 67%
    05:00 +1°C° 0 mm 2 mps 770 mmHg 68%
    06:00 +1°C° 0 mm 2 mps 770 mmHg 69%
    07:00 +1°C° 0 mm 2 mps 770 mmHg 71%
    08:00 +1°C° 0 mm 3 mps 770 mmHg 67%
    09:00 +3°C° 0 mm 3 mps 770 mmHg 63%
    10:00 +4°C° 0 mm 3 mps 770 mmHg 59%
    11:00 +7°C° 0 mm 3 mps 770 mmHg 57%
    12:00 +8°C° 0 mm 3 mps 770 mmHg 54%
    13:00 +9°C° 0 mm 3 mps 769 mmHg 51%
    14:00 +9°C° 0 mm 3 mps 769 mmHg 52%
    15:00 +10°C° 0 mm 3 mps 769 mmHg 53%
    16:00 +10°C° 0 mm 2 mps 768 mmHg 55%
    17:00 +9°C° 0 mm 2 mps 769 mmHg 59%
    18:00 +7°C° 0 mm 2 mps 769 mmHg 63%
    19:00 +6°C° 0 mm 2 mps 769 mmHg 67%
    20:00 +6°C° 0 mm 2 mps 768 mmHg 70%
    21:00 +5°C° 0 mm 2 mps 768 mmHg 72%
    22:00 +5°C° 0 mm 2 mps 768 mmHg 74%
    23:00 +4°C° 0 mm 3 mps 768 mmHg 76%

    26 February, Tuesday

    Time Temperature Precipitation Wind Pressure Humidity
    00:00 +3°C° 0 mm 3 mps 767 mmHg 78%
    01:00 +3°C° 0 mm 3 mps 767 mmHg 80%
    02:00 +3°C° 0 mm 3 mps 766 mmHg 81%
    03:00 +3°C° 0 mm 3 mps 766 mmHg 82%
    04:00 +3°C° 0 mm 4 mps 766 mmHg 83%
    05:00 +1°C° 0 mm 4 mps 765 mmHg 84%
    06:00 +1°C° 0 mm 4 mps 765 mmHg 86%
    07:00 +1°C° 0 mm 4 mps 765 mmHg 87%
    08:00 +4°C° 0 mm 4 mps 765 mmHg 80%
    09:00 +5°C° 0 mm 5 mps 765 mmHg 74%
    10:00 +6°C° 0 mm 5 mps 765 mmHg 67%
    11:00 +6°C° 0 mm 5 mps 764 mmHg 66%
    12:00 +7°C° 0 mm 5 mps 764 mmHg 66%
    13:00 +7°C° 0 mm 5 mps 764 mmHg 66%
    14:00 +7°C° 0 mm 4 mps 764 mmHg 67%
    15:00 +7°C° 0 mm 4 mps 764 mmHg 67%
    16:00 +8°C° 0 mm 4 mps 764 mmHg 68%
    17:00 +8°C° 0 mm 3 mps 764 mmHg 74%
    18:00 +5°C° 0 mm 3 mps 764 mmHg 80%
    19:00 +5°C° 0 mm 2 mps 764 mmHg 86%
    20:00 +5°C° 0 mm 2 mps 764 mmHg 87%
    21:00 +5°C° 0 mm 2 mps 764 mmHg 89%
    22:00 +4°C° 0 mm 2 mps 765 mmHg 91%
    23:00 +4°C° 0 mm 2 mps 764 mmHg 92%

    27 February, Wednesday

    Time Temperature Precipitation Wind Pressure Humidity
    00:00 +4°C° 0 mm 2 mps 764 mmHg 93%
    01:00 +3°C° 0 mm 2 mps 764 mmHg 94%
    02:00 +3°C° 0 mm 2 mps 764 mmHg 94%
    03:00 +3°C° 0 mm 2 mps 764 mmHg 94%
    04:00 +2°C° 0 mm 2 mps 764 mmHg 95%
    05:00 +3°C° 0 mm 1 mps 764 mmHg 95%
    06:00 +3°C° 0 mm 1 mps 763 mmHg 95%
    07:00 +3°C° 0 mm 1 mps 763 mmHg 95%
    08:00 +4°C° 0 mm 1 mps 763 mmHg 92%
    09:00 +5°C° 0 mm 2 mps 763 mmHg 88%
    10:00 +7°C° 0 mm 2 mps 763 mmHg 84%
    11:00 +8°C° 0 mm 3 mps 762 mmHg 80%
    12:00 +10°C° 0 mm 3 mps 762 mmHg 75%
    13:00 +11°C° 0 mm 3 mps 761 mmHg 70%
    14:00 +11°C° 0 mm 3 mps 760 mmHg 73%
    15:00 +11°C° 0 mm 3 mps 759 mmHg 76%
    16:00 +11°C° 0 mm 3 mps 759 mmHg 79%
    17:00 +10°C° 0 mm 3 mps 758 mmHg 82%
    18:00 +9°C° 0 mm 3 mps 758 mmHg 86%
    19:00 +9°C° 0 mm 3 mps 757 mmHg 90%
    20:00 +8°C° 0 mm 3 mps 756 mmHg 90%
    21:00 +8°C° 0 mm 3 mps 756 mmHg 90%
    22:00 +7°C° 0 mm 4 mps 755 mmHg 90%
    23:00 +7°C° 0 mm 4 mps 755 mmHg 89%
    Show more